Temp
-1 -1 -2 -2 -3 -3 -3 -3 -3 -3 -3 -3 -2 -2 -2 -2 -3 -3 -5 -5 -5 -4 -4 -3 -4 -4 -4 -4 -4 -3 -4 -2 -3 -3 -3 -3 -2 -2 -1 -0 -1 -1 -0 1 2 1 1 -0 2 2 1 0 2 1
-1 -1 -2 -2 -3 -3 -3 -3 -3 -3 -3 -3 -3 -2 -2 -2 -3 -4 -4 -4 -3 -5 -2 -1 -1 -2 -2 -3 -4 -3 -3 -4 -3 -4 -3 -2 -2 -2 -1 -0 0 -1 -1 -1 -0 0 -1 -1 -0 -0 -0 1 1 1
-1 -2 -2 -2 -3 -3 -3 -3 -3 -3 -3 -3 -3 -3 -3 -3 -3 -4 -4 -3 -3 -4 -1 -0 -0 -0 -1 -1 -2 -3 -2 -2 -2 -3 -4 -3 -3 -2 -2 -1 -0 -0 0 -1 -1 1 0 -0 -0 -1 -0 -0 0 1
-2 -2 -2 -3 -3 -3 -3 -3 -3 -3 -3 -3 -3 -3 -3 -3 -3 -3 -5 -5 -4 -5 -5 1 1 1 0 -1 -1 -1 -2 -2 -3 -2 -3 -3 -2 -3 -2 -2 -1 -1 -0 -1 0 1 1 1 -0 -1 -1 -0 0 0
-2 -2 -2 -3 -3 -3 -3 -3 -3 -3 -3 -3 -3 -3 -3 -3 -3 -4 -5 -5 -5 -5 -6 -2 1 1 1 0 0 -0 -1 -2 -2 -2 -6 -3 -2 -3 -1 -1 -1 -2 -1 -1 -1 0 -0 -0 -0 -1 -1 -1 -0 -1
-2 -2 -2 -3 -3 -3 -3 -3 -3 -3 -3 -3 -3 -3 -3 -3 -3 -4 -4 -4 -5 -6 -5 -8 -0 2 1 1 0 -1 -1 -2 -2 -2 -3 -2 -2 -3 -2 -1 -1 -2 -2 -2 -1 -0 0 -0 -1 -1 -1 -1 -1 -1
-3 -3 -3 -3 -3 -3 -3 -3 -3 -3 -3 -3 -2 -2 -2 -2 -3 -4 -4 -4 -4 -4 -5 -6 -3 1 0 0 -0 -0 -1 -1 -2 -2 -2 -3 -2 -3 -4 -1 -2 -2 -2 -1 -1 0 0 -1 -2 -2 -2 -2 -2 -2
-3 -3 -3 -3 -3 -3 -3 -3 -3 -3 -3 -3 -2 -2 -2 -2 -3 -4 -4 -3 -4 -4 -4 -8 -5 -1 -0 -0 -0 -1 -1 -1 -2 -3 -2 -3 -2 -2 -3 -1 -2 -2 -2 -0 -1 -1 -1 -2 -2 -2 -2 -2 -2 -2
-3 -3 -3 -3 -3 -3 -3 -3 -3 -3 -3 -3 -2 -2 -3 -3 -3 -4 -4 -3 -3 -3 -4 -6 -6 -8 -1 -1 -1 -1 -1 -5 -2 -3 -3 -2 -3 -2 -1 -2 -1 -2 -2 -2 -1 -2 -1 -3 -3 -3 -3 -3 -3 -3
-3 -3 -3 -3 -3 -3 -3 -3 -3 -3 -3 -3 -2 -2 -3 -3 -3 -4 -3 -3 -4 -4 -4 -6 -5 -6 -2 -2 -1 -2 -2 -7 -5 -4 -2 -5 -4 -1 -1 -1 -1 -1 -0 -0 -0 -1 -2 -2 -2 -3 -3 -3 -3 -3
-3 -3 -3 -3 -3 -3 -3 -3 -3 -3 -3 -3 -3 -3 -4 -4 -4 -4 -4 -3 -4 -4 -3 -2 -3 -4 -2 -4 -5 -3 -7 -5 -5 -4 -4 -6 -3 -0 0 0 0 0 -0 -0 -0 -1 -1 -1 -2 -2 -2 -2 -2 -2
-3 -3 -3 -3 -3 -3 -3 -4 -3 -3 -3 -3 -3 -5 -4 -4 -4 -5 -10 -5 -5 -3 -2 -1 -1 -2 -2 -2 -1 -2 -4 -4 -2 -2 -6 -6 -5 1 1 1 1 1 0 0 0 -0 -0 -0 -1 -1 -1 -1 -2 -2
-3 -3 -3 -3 -3 -3 -3 -4 -4 -4 -4 -4 -5 -5 -5 -6 -10 -6 -8 -5 -6 -2 -0 -0 -1 -1 -1 -1 -2 -3 -3 -5 -3 -8 -4 -5 1 0 -0 1 1 1 1 1 1 1 1 1 0 0 0 -0 -1 -1
-3 -3 -3 -3 -3 -3 -3 -4 -4 -4 -4 -4 -5 -8 -7 -9 -7 -5 -3 -3 -1 -0 0 -0 -0 -1 -1 -1 -3 -2 -2 -4 -5 -5 -4 -6 1 1 1 0 1 1 1 1 1 1 1 1 1 1 1 1 0 -0
-3 -3 -3 -3 -3 -3 -3 -4 -4 -4 -4 -4 -5 -5 -5 -4 -3 -3 -2 -2 -0 -0 -0 -0 -2 -2 -3 -4 -4 -4 -5 -5 -3 -4 -3 1 1 1 1 1 1 1 1 1 1 1 1 1 1 1 1 1 1 0
-2 -3 -3 -3 -3 -3 -3 -4 -5 -5 -4 -5 -5 -4 -3 -4 -3 -3 -2 -1 -0 -0 -0 -1 -3 -7 -5 -4 -2 -4 -2 -2 -3 -2 1 1 1 1 1 1 1 0 1 1 1 1 1 1 1 1 1 0 0 -0
-2 -3 -2 -3 -3 -3 -4 -5 -5 -4 -5 -5 -4 -4 -3 -3 -2 -1 -1 -0 -1 -1 -2 -2 -4 -2 -4 -5 -3 -3 -4 -2 1 1 1 1 1 0 0 0 0 0 0 1 1 1 1 1 1 1 -0 -0 -1 -1
-2 -2 -3 -3 -3 -3 -4 -5 -5 -5 -5 -5 -4 -3 -3 -2 -2 -1 -1 -1 -1 -1 -1 -2 -1 -3 -6 -3 -3 -2 0 0 1 1 0 0 -0 -0 -1 -1 -1 -1 -0 0 1 1 0 0 -0 -0 -1 -1 -2 -2
-2 -2 -3 -3 -3 -4 -5 -5 -5 -5 -5 -4 -3 -3 -2 -2 -1 -1 -1 -1 -1 -1 -1 -1 -3 -4 -3 -1 -0 1 1 1 0 0 -0 -0 -0 -1 -1 -1 -1 -1 -1 -1 -0 -0 -0 -0 -1 -1 -2 -3 -3 -4
-2 -3 -2 -3 -3 -4 -5 -5 -5 -4 -4 -3 -3 -3 -2 -2 -2 -1 -1 -1 -1 -2 -2 -4 -3 -0 -0 1 1 1 1 0 -0 -1 -1 -0 -1 -1 -2 -2 -2 -2 -1 -1 -1 -1 -1 -2 -2 -3 -3 -4 -5 -5
-3 -2 -3 -3 -4 -3 -3 -5 -5 -4 -3 -3 -2 -2 -2 -2 -2 -2 -2 -2 -3 -2 -2 -1 -0 0 0 0 0 0 0 -0 -0 -0 -0 -1 -1 -2 -2 -3 -3 -2 -2 -2 -2 -3 -3 -3 -4 -4 -5 -6 -7 -7
-2 -3 -4 -4 -3 -4 -3 -4 -3 -3 -3 -3 -3 -2 -2 -3 -2 -2 -1 -2 -3 -2 -1 -1 -0 -0 -0 -0 0 0 0 -0 -0 -1 -1 -1 -2 -3 -3 -4 -4 -4 -4 -4 -3 -4 -4 -5 -5 -6 -7 -8 -9 -9
-3 -3 -3 -4 -4 -5 -4 -4 -4 -4 -5 -3 -3 -3 -3 -2 -1 -2 -2 -2 -1 -0 0 1 1 1 0 0 -0 -0 -0 -1 -1 -1 -1 -2 -3 -3 -4 -4 -5 -5 -5 -4 -4 -5 -5 -6 -6 -7 -8 -9 -10 -10
-3 -3 -3 -4 -4 -5 -5 -4 -4 -4 -3 -4 -4 -5 -4 -2 -2 -3 -4 -1 1 1 1 1 1 1 0 -0 -0 0 -0 -1 -1 -1 -2 -2 -3 -3 -4 -4 -5 -5 -5 -5 -5 -5 -6 -6 -7 -8 -9 -10 -10 -10
-3 -5 -4 -5 -5 -5 -5 -4 -4 -3 -5 -4 -3 -5 -3 -2 -6 -6 -3 -1 1 1 1 1 0 0 0 0 1 0 -0 -0 -1 -1 -2 -3 -3 -4 -4 -4 -5 -5 -6 -6 -6 -6 -6 -7 -9 -9 -10 -10 -10 -10
-4 -5 -4 -5 -5 -5 -5 -5 -4 -6 -5 -6 -3 -1 -2 -5 -7 -6 -3 2 2 2 3 2 1 0 0 0 0 0 0 -0 -1 -1 -2 -2 -3 -4 -4 -5 -5 -5 -6 -6 -7 -7 -7 -8 -9 -10 -10 -11 -11 -10
-4 -5 -4 -4 -4 -4 -6 -3 -3 -2 -6 -7 -6 -6 -7 -8 -7 -4 1 2 2 3 3 2 2 1 1 1 1 1 0 -1 -1 -1 -2 -3 -3 -4 -5 -5 -6 -6 -6 -6 -7 -8 -8 -8 -8 -10 -11 -11 -10 -10
-4 -4 -5 -6 -4 -3 -9 -7 -7 -5 -6 -3 -3 -8 -5 -6 -4 1 2 3 3 3 2 2 1 1 1 1 1 1 0 -1 -1 -1 -2 -3 -3 -3 -4 -5 -6 -7 -7 -8 -8 -8 -7 -7 -7 -8 -10 -10 -10 -10
-5 -4 -4 -7 -5 -3 -5 -7 -6 -2 -1 -2 -4 -5 -4 -0 2 2 3 3 2 2 2 2 2 1 1 1 1 0 -0 -0 -0 -1 -1 -2 -3 -3 -4 -5 -7 -8 -6 -6 -6 -6 -6 -7 -7 -7 -9 -9 -9 -9
-6 -5 -5 -6 -9 -8 -3 -1 -1 -0 0 1 0 1 1 1 2 2 2 2 2 2 2 2 1 1 1 1 1 -0 -1 -0 -0 -0 -1 -1 -2 -3 -3 -4 -5 -6 -6 -5 -5 -5 -6 -7 -7 -8 -9 -9 -9 -9
-5 -4 -5 -5 -8 -3 -1 -1 -0 0 0 0 0 0 0 1 1 2 2 2 2 1 1 1 1 1 1 1 -0 -0 -0 -0 0 -0 -1 -1 -2 -2 -2 -3 -5 -7 -7 -6 -5 -6 -6 -7 -8 -9 -9 -8 -9 -9
-5 -4 -7 -9 -7 -3 -1 -1 -0 -1 -1 -1 -0 -0 -0 -1 -1 1 1 1 1 1 1 0 1 1 1 1 0 1 1 1 1 -0 -1 -1 -2 -3 -3 -4 -5 -7 -8 -6 -6 -6 -6 -7 -8 -9 -9 -8 -9 -9
-6 -5 -5 -6 -7 -6 -4 -2 -3 -4 -3 -3 -1 -1 -1 -1 -2 0 1 1 1 1 1 1 1 1 1 1 0 0 0 0 -0 -0 -1 -1 -2 -3 -4 -4 -6 -7 -7 -6 -6 -6 -6 -7 -8 -9 -9 -8 -8 -8
Height
1549 1550 1552 1553 1553 1553 1553 1553 1551 1550 1549 1547 1545 1543 1541 1539 1537 1535 1534 1531 1530 1527 1521 1520 1518 1516 1513 1511 1507 1498 1488 1483 1477 1472 1471 1469 1464 1461 1456 1454 1454 1456 1454 1450 1442 1446 1455 1453 1440 1446 1459 1455 1453 1451
1547 1549 1551 1551 1551 1552 1552 1552 1551 1550 1549 1548 1546 1544 1542 1540 1538 1536 1533 1532 1528 1527 1523 1520 1518 1516 1514 1511 1508 1502 1501 1495 1492 1488 1484 1478 1472 1468 1462 1459 1459 1465 1467 1465 1466 1469 1471 1463 1461 1460 1458 1455 1453 1452
1546 1548 1549 1550 1550 1551 1551 1552 1551 1550 1549 1548 1546 1545 1543 1541 1539 1537 1534 1532 1527 1526 1523 1520 1518 1517 1514 1511 1509 1507 1499 1498 1496 1493 1491 1488 1482 1478 1474 1471 1471 1469 1467 1469 1472 1472 1470 1466 1464 1462 1460 1456 1454 1451
1544 1546 1547 1548 1548 1549 1550 1551 1550 1549 1548 1548 1547 1545 1543 1542 1540 1538 1536 1534 1531 1529 1527 1522 1519 1517 1514 1511 1508 1504 1501 1498 1497 1494 1492 1492 1488 1487 1483 1482 1479 1481 1476 1475 1474 1473 1471 1470 1467 1464 1460 1457 1455 1451
1540 1544 1545 1546 1547 1548 1549 1550 1549 1548 1548 1547 1546 1545 1543 1542 1541 1538 1537 1537 1535 1535 1531 1522 1520 1518 1515 1512 1508 1504 1502 1500 1498 1496 1496 1496 1493 1492 1487 1484 1485 1488 1486 1484 1484 1480 1477 1475 1472 1468 1464 1460 1456 1453
1537 1540 1543 1544 1545 1546 1548 1549 1548 1548 1547 1546 1546 1545 1543 1542 1540 1538 1538 1538 1536 1534 1532 1529 1522 1518 1515 1513 1510 1507 1505 1503 1502 1501 1500 1499 1498 1498 1495 1492 1494 1491 1491 1490 1488 1481 1480 1478 1474 1470 1466 1462 1458 1456
1534 1537 1540 1541 1543 1545 1546 1547 1547 1547 1546 1546 1545 1544 1543 1542 1541 1541 1542 1540 1537 1535 1533 1529 1523 1520 1517 1514 1512 1510 1508 1507 1505 1505 1504 1502 1500 1500 1503 1501 1500 1494 1489 1487 1486 1483 1482 1481 1480 1477 1472 1468 1464 1460
1530 1533 1536 1538 1540 1543 1544 1545 1545 1545 1544 1544 1544 1543 1542 1542 1541 1541 1540 1538 1537 1536 1535 1535 1530 1524 1520 1517 1515 1513 1512 1511 1510 1510 1508 1508 1504 1505 1511 1508 1501 1495 1488 1485 1485 1484 1486 1486 1484 1481 1477 1473 1468 1464
1526 1530 1533 1535 1538 1540 1542 1543 1544 1544 1543 1543 1542 1542 1542 1543 1542 1542 1540 1539 1538 1541 1537 1537 1540 1539 1524 1522 1519 1517 1516 1518 1516 1515 1514 1513 1513 1515 1516 1511 1504 1498 1495 1491 1488 1489 1489 1487 1487 1485 1482 1479 1474 1471
1522 1526 1530 1533 1535 1538 1540 1541 1541 1542 1542 1541 1541 1542 1542 1542 1542 1542 1540 1540 1538 1538 1538 1537 1536 1535 1530 1525 1522 1521 1520 1524 1525 1522 1519 1520 1521 1517 1515 1513 1509 1505 1501 1499 1496 1495 1494 1492 1491 1489 1486 1484 1480 1476
1518 1522 1526 1529 1533 1535 1537 1538 1540 1540 1541 1540 1540 1540 1542 1541 1541 1541 1540 1539 1540 1539 1537 1535 1535 1534 1531 1530 1528 1527 1528 1526 1531 1527 1525 1529 1524 1518 1516 1513 1511 1508 1506 1503 1502 1500 1498 1497 1494 1492 1489 1486 1484 1480
1514 1518 1522 1526 1529 1532 1534 1536 1538 1539 1539 1539 1539 1539 1540 1541 1542 1543 1543 1540 1539 1537 1534 1533 1533 1531 1530 1530 1529 1529 1530 1529 1526 1525 1529 1533 1521 1517 1516 1514 1512 1510 1508 1506 1505 1503 1501 1499 1497 1494 1492 1489 1486 1483
1509 1514 1518 1522 1526 1529 1532 1534 1536 1537 1538 1539 1538 1539 1539 1541 1547 1544 1550 1540 1540 1534 1533 1532 1532 1530 1529 1530 1530 1530 1532 1534 1527 1535 1530 1524 1516 1516 1515 1513 1512 1511 1509 1507 1506 1504 1501 1499 1496 1494 1491 1490 1487 1485
1505 1509 1513 1518 1522 1525 1528 1531 1534 1536 1537 1537 1537 1540 1538 1542 1537 1531 1530 1530 1532 1532 1533 1532 1531 1531 1529 1529 1530 1531 1530 1530 1536 1537 1527 1517 1515 1515 1514 1513 1511 1510 1509 1507 1505 1503 1501 1500 1497 1495 1493 1491 1489 1487
1500 1505 1509 1514 1518 1522 1525 1529 1532 1534 1536 1536 1537 1535 1532 1528 1527 1527 1528 1529 1530 1531 1531 1531 1531 1532 1530 1531 1531 1531 1535 1536 1527 1526 1519 1515 1515 1513 1512 1510 1509 1507 1506 1505 1503 1502 1500 1498 1496 1495 1493 1491 1489 1487
1495 1501 1503 1509 1514 1518 1522 1526 1529 1533 1534 1533 1531 1527 1525 1526 1524 1525 1526 1526 1527 1528 1529 1529 1530 1534 1534 1531 1530 1532 1526 1524 1519 1514 1514 1514 1513 1512 1511 1509 1507 1506 1504 1502 1500 1499 1498 1496 1494 1493 1491 1489 1487 1485
1490 1492 1497 1504 1510 1515 1519 1523 1528 1529 1528 1526 1521 1519 1520 1520 1520 1521 1523 1524 1525 1527 1528 1528 1531 1529 1530 1532 1527 1522 1520 1512 1509 1510 1511 1511 1510 1509 1508 1506 1504 1502 1500 1498 1497 1495 1494 1493 1492 1490 1488 1487 1486 1484
1481 1485 1494 1501 1506 1511 1514 1519 1523 1522 1519 1516 1516 1513 1515 1515 1516 1518 1519 1521 1523 1524 1526 1526 1524 1525 1529 1521 1517 1509 1508 1508 1508 1508 1508 1507 1507 1505 1503 1501 1499 1496 1495 1494 1493 1491 1490 1490 1489 1488 1487 1485 1483 1482
1473 1480 1489 1495 1497 1504 1510 1515 1517 1514 1510 1509 1508 1509 1509 1509 1510 1512 1514 1516 1518 1520 1523 1521 1519 1516 1510 1505 1503 1504 1505 1505 1505 1504 1503 1502 1501 1500 1498 1497 1495 1493 1491 1490 1489 1488 1487 1487 1486 1485 1483 1482 1480 1477
1470 1477 1483 1488 1494 1498 1505 1507 1508 1507 1504 1502 1502 1503 1504 1503 1505 1507 1509 1511 1513 1514 1514 1510 1501 1496 1496 1498 1500 1501 1501 1501 1500 1498 1497 1496 1496 1494 1493 1492 1490 1488 1487 1487 1486 1485 1484 1484 1483 1482 1480 1478 1476 1473
1467 1472 1480 1483 1487 1491 1493 1494 1496 1496 1496 1496 1495 1496 1497 1496 1497 1499 1501 1505 1506 1504 1498 1491 1489 1491 1493 1494 1495 1495 1495 1496 1494 1493 1491 1490 1490 1489 1488 1487 1486 1484 1483 1483 1482 1482 1481 1480 1479 1478 1477 1475 1472 1469
1455 1465 1469 1476 1479 1482 1483 1484 1486 1488 1492 1491 1491 1493 1491 1490 1490 1491 1492 1493 1489 1485 1484 1483 1482 1483 1485 1485 1486 1486 1487 1488 1487 1486 1486 1485 1484 1483 1483 1482 1482 1481 1481 1480 1480 1480 1479 1478 1477 1476 1475 1473 1470 1467
1448 1456 1464 1468 1472 1473 1473 1474 1479 1480 1483 1484 1486 1487 1485 1483 1482 1485 1484 1476 1472 1469 1471 1472 1471 1473 1474 1475 1476 1476 1477 1477 1478 1479 1480 1479 1479 1478 1478 1478 1478 1477 1477 1477 1476 1476 1476 1476 1475 1473 1472 1470 1468 1466
1440 1447 1451 1456 1458 1460 1462 1464 1467 1472 1474 1476 1479 1480 1478 1478 1477 1478 1477 1465 1460 1462 1462 1461 1463 1464 1465 1465 1465 1466 1469 1471 1472 1473 1474 1474 1473 1473 1474 1474 1473 1473 1473 1473 1473 1473 1473 1472 1471 1470 1468 1467 1466 1465
1431 1437 1440 1443 1445 1450 1451 1452 1455 1460 1463 1466 1469 1470 1469 1471 1473 1471 1464 1452 1453 1452 1452 1453 1454 1455 1455 1457 1459 1461 1463 1465 1466 1468 1469 1468 1468 1469 1469 1469 1469 1469 1470 1470 1470 1470 1469 1469 1468 1467 1466 1465 1464 1464
1413 1417 1421 1421 1428 1433 1433 1439 1442 1448 1452 1457 1458 1459 1462 1466 1471 1466 1449 1440 1442 1443 1443 1443 1444 1446 1447 1449 1452 1454 1456 1459 1461 1462 1464 1464 1463 1464 1464 1465 1464 1465 1465 1466 1466 1466 1466 1465 1465 1464 1463 1463 1463 1462
1396 1399 1404 1408 1412 1414 1420 1423 1429 1435 1442 1448 1447 1453 1457 1467 1459 1442 1431 1431 1434 1435 1436 1437 1437 1438 1440 1442 1445 1448 1451 1454 1456 1458 1459 1459 1459 1459 1459 1460 1459 1461 1461 1461 1461 1461 1461 1461 1461 1461 1461 1461 1461 1461
1379 1385 1389 1393 1400 1402 1408 1413 1419 1425 1426 1427 1434 1443 1443 1440 1431 1422 1423 1426 1427 1429 1430 1431 1432 1433 1435 1437 1439 1441 1444 1448 1450 1452 1453 1454 1453 1453 1453 1454 1455 1454 1455 1455 1456 1456 1457 1458 1458 1458 1459 1460 1460 1460
1369 1372 1381 1389 1393 1395 1395 1398 1398 1400 1407 1413 1416 1419 1415 1413 1415 1418 1420 1422 1423 1424 1425 1426 1426 1428 1430 1431 1433 1435 1438 1441 1444 1446 1447 1448 1448 1448 1448 1449 1449 1449 1450 1450 1452 1453 1454 1455 1455 1456 1457 1458 1459 1459
1361 1365 1369 1376 1380 1380 1376 1381 1387 1394 1398 1401 1406 1407 1407 1407 1411 1413 1415 1416 1417 1417 1419 1421 1422 1423 1425 1426 1428 1430 1432 1435 1437 1440 1441 1442 1443 1443 1442 1443 1444 1445 1446 1447 1448 1450 1451 1451 1452 1454 1455 1457 1457 1458
1354 1359 1362 1366 1368 1366 1372 1378 1383 1387 1391 1395 1398 1400 1399 1403 1404 1406 1409 1410 1411 1413 1414 1415 1416 1418 1419 1420 1422 1425 1426 1428 1431 1434 1435 1436 1436 1436 1437 1438 1440 1441 1442 1444 1445 1447 1447 1448 1450 1451 1452 1454 1455 1456
1349 1352 1355 1362 1363 1365 1370 1372 1377 1380 1383 1387 1389 1392 1394 1396 1396 1398 1399 1401 1403 1403 1403 1407 1408 1409 1412 1415 1417 1418 1419 1423 1425 1427 1428 1429 1430 1431 1432 1433 1435 1437 1438 1439 1441 1443 1444 1445 1447 1448 1450 1451 1453 1454
1346 1348 1351 1354 1360 1362 1366 1369 1370 1374 1376 1377 1378 1381 1381 1385 1385 1387 1389 1391 1390 1391 1393 1396 1399 1401 1404 1406 1408 1410 1413 1415 1418 1419 1421 1422 1423 1424 1425 1427 1429 1431 1433 1435 1437 1438 1440 1441 1443 1445 1446 1448 1450 1452
Wind_Speed
5 4 2 2 4 5 7 9 10 11 12 12 13 12 11 12 14 18 14 14 13 6 12 7 14 15 12 6 4 15 12 10 5 7 4 4 3 5 3 4 3 4 4 3 4 6 5 27 6 6 4 10 11 13
7 6 5 3 4 5 5 7 9 10 10 10 12 11 11 11 13 16 17 17 16 3 7 12 6 8 10 9 10 8 5 6 4 3 3 3 3 4 8 4 10 6 4 2 5 4 5 11 9 16 12 10 11 13
9 8 6 3 4 4 5 7 8 9 9 9 10 10 10 10 12 15 13 18 17 6 3 9 14 10 9 13 12 5 7 11 9 9 4 3 3 3 5 5 4 8 13 3 2 3 4 11 19 23 20 18 16 15
12 10 8 5 4 4 5 6 8 8 7 8 9 9 9 10 11 13 8 15 21 6 3 4 13 14 18 20 19 12 15 15 14 10 2 1 3 8 4 3 7 6 9 7 2 6 4 14 23 25 24 21 20 19
13 12 10 7 5 4 5 6 7 8 6 6 8 8 9 10 12 11 3 7 17 10 4 10 10 18 21 19 16 13 9 10 9 5 3 3 5 4 4 2 4 14 6 4 2 13 4 7 21 25 24 24 22 21
15 13 12 10 7 5 6 5 6 7 6 6 7 7 8 9 12 6 3 3 16 15 4 3 10 14 26 18 12 12 11 9 7 4 4 4 5 9 3 3 20 28 21 15 6 12 7 6 18 22 23 23 20 19
15 14 14 11 9 7 7 6 6 7 6 6 7 7 7 8 7 4 4 9 13 9 4 7 11 11 18 17 10 9 12 9 8 4 7 6 5 7 2 5 25 27 28 18 19 11 8 14 11 18 19 20 21 22
17 17 16 12 10 9 8 6 5 6 6 6 7 8 5 3 5 5 8 9 9 3 3 3 5 9 15 10 8 11 8 8 12 7 7 6 7 6 3 21 26 27 24 11 18 9 7 7 13 19 19 21 26 29
18 18 17 14 13 11 8 7 6 6 6 6 7 2 1 1 3 6 8 6 6 4 1 2 1 4 12 8 8 7 6 3 6 5 6 8 4 5 8 19 25 29 21 11 13 11 9 17 17 18 20 24 29 30
19 19 17 15 14 12 9 9 6 5 5 6 3 1 1 2 6 6 3 3 3 2 2 2 2 3 8 6 6 9 5 1 2 3 7 3 2 7 20 22 21 22 22 15 18 16 16 20 20 23 24 26 26 24
20 19 17 17 16 13 10 10 7 5 4 3 1 2 2 5 2 2 2 2 3 2 2 3 4 5 4 2 2 6 1 3 3 3 2 2 3 7 18 20 16 15 16 16 16 16 16 17 19 20 21 20 22 27
23 21 19 18 17 14 11 10 7 4 3 1 1 1 1 0 1 2 2 3 2 2 2 3 5 6 3 2 2 4 1 2 1 6 3 3 3 9 13 16 14 11 12 12 11 10 9 9 9 11 14 17 19 23
24 22 20 20 19 16 14 11 8 5 4 2 1 1 1 1 4 4 4 2 1 3 2 3 5 3 1 2 3 3 3 2 2 3 2 4 8 11 9 13 11 8 8 9 11 11 12 14 15 16 15 11 13 14
25 23 22 22 21 19 16 13 10 7 5 3 3 3 3 2 4 4 3 3 3 2 3 6 5 2 2 2 1 2 1 2 3 2 3 4 10 11 11 14 12 11 9 10 11 12 12 12 13 12 12 13 12 11
26 24 24 24 22 21 19 16 12 10 4 3 4 4 5 8 6 3 6 4 3 2 4 5 2 2 2 2 1 1 4 3 3 4 3 7 10 12 15 15 13 13 13 13 13 12 12 14 14 14 13 11 12 13
26 24 28 27 25 24 21 19 15 11 4 4 6 4 7 3 6 8 8 9 6 4 1 1 2 3 2 1 1 4 2 4 3 5 5 6 10 9 11 14 15 16 15 16 14 14 13 13 13 14 12 11 11 9
27 32 30 29 27 26 26 24 14 8 7 5 7 15 12 5 8 7 9 6 7 4 2 2 2 5 2 1 3 3 4 3 7 10 6 10 12 13 19 22 22 22 21 17 16 14 12 12 14 14 10 10 10 13
33 34 29 30 30 31 32 16 9 8 9 14 7 12 15 14 13 12 11 9 8 5 5 4 3 3 4 4 3 4 9 6 7 10 16 13 15 20 20 20 21 20 21 18 16 15 13 13 12 11 12 14 15 16
37 36 33 32 40 32 12 12 8 5 15 7 17 15 15 16 20 17 13 11 11 10 4 4 4 4 4 9 13 15 12 12 14 15 16 18 18 19 19 17 18 18 16 14 12 11 11 11 11 13 14 15 18 21
35 34 34 34 41 18 10 8 12 7 6 9 11 15 19 17 21 22 21 19 16 10 8 5 8 13 16 18 15 15 12 14 16 18 21 18 17 16 16 18 18 16 15 14 13 13 13 13 13 14 16 17 20 24
33 32 33 37 36 22 10 9 10 8 6 8 9 15 6 12 21 24 21 16 17 10 10 25 30 29 25 22 21 18 22 23 22 23 23 22 16 15 16 15 15 12 10 10 9 9 9 10 11 13 16 21 24 18
38 41 35 40 14 13 15 15 7 9 8 5 8 10 6 5 9 11 15 17 11 26 33 34 37 35 34 34 34 33 32 29 28 24 20 18 17 15 13 13 12 12 10 12 13 13 14 15 16 16 15 16 12 10
44 46 24 15 7 14 7 22 12 13 6 9 11 6 5 6 7 10 6 9 13 27 30 34 36 33 34 34 31 27 22 21 20 19 17 16 15 14 12 13 13 13 11 10 12 12 12 12 14 15 15 12 9 9
38 27 12 17 15 9 11 13 13 11 9 8 5 4 3 8 8 6 3 8 24 22 23 27 26 25 25 26 27 25 22 18 17 15 15 15 16 17 15 13 13 11 12 13 13 13 13 13 12 13 10 8 7 8
15 11 11 8 12 9 6 7 8 7 5 6 8 4 5 10 3 4 4 10 17 23 26 27 29 29 28 25 21 17 16 17 16 16 14 15 13 13 16 15 13 12 11 11 11 12 12 12 13 9 8 7 6 7
7 12 15 18 15 10 9 7 10 6 4 5 6 7 10 5 2 5 5 16 20 15 15 18 26 26 26 24 23 19 19 16 14 16 15 15 13 13 14 15 13 13 13 11 11 12 13 12 8 7 6 6 5 5
9 7 14 15 13 10 6 8 15 14 7 6 5 5 4 4 7 8 19 24 23 19 15 15 13 14 18 20 21 19 17 16 15 13 12 13 13 13 14 16 16 14 14 13 12 12 13 9 8 6 6 5 2 4
8 15 12 19 11 17 6 5 6 9 6 11 17 6 9 9 8 15 13 10 7 8 9 10 13 16 18 17 13 17 22 20 17 15 15 15 14 13 13 12 13 13 12 12 12 12 10 8 8 6 4 3 1 3
8 19 21 6 7 9 13 7 9 12 21 22 10 6 8 14 23 19 15 13 11 12 12 12 11 10 13 16 18 20 21 22 19 16 15 15 14 13 13 15 15 12 11 11 10 9 8 7 5 4 6 5 1 1
13 28 9 12 7 8 18 23 25 26 30 31 34 25 23 23 22 21 22 22 22 19 16 14 12 10 9 14 21 24 24 23 19 16 13 12 11 12 14 15 17 13 12 11 10 7 7 8 7 7 7 7 4 3
20 20 7 9 7 16 17 28 26 32 33 36 34 33 34 24 23 24 24 22 23 20 21 21 19 18 16 13 19 26 27 25 20 14 13 15 16 14 12 13 14 13 13 11 11 8 8 9 10 9 9 9 8 6
17 14 9 4 2 16 19 27 28 28 31 32 30 34 29 22 20 27 29 26 27 28 29 27 26 26 24 20 17 19 23 21 19 17 16 15 16 16 14 16 16 17 17 14 13 12 12 12 13 12 11 11 11 10
8 10 7 8 5 9 15 16 14 11 13 16 22 35 38 26 16 28 28 30 35 38 37 34 31 28 27 27 25 24 24 23 23 24 22 20 18 19 19 20 21 21 20 17 15 15 15 15 15 15 14 13 13 12
Wind_Direction
208 225 244 302 342 346 347 354 359 2 6 9 12 14 14 11 5 5 6 19 1 307 307 309 322 312 322 324 308 314 337 358 319 12 352 356 338 358 340 16 7 55 320 22 1 33 22 337 26 54 322 309 328 342
217 223 235 264 321 332 341 344 351 355 358 4 8 10 9 7 3 5 8 20 352 282 314 349 11 355 343 335 291 308 296 294 333 337 350 333 328 336 341 43 17 38 347 29 35 44 309 347 7 1 357 349 345 341
223 219 229 251 300 318 328 333 341 346 349 357 4 3 1 1 3 5 8 13 12 347 343 360 8 3 355 353 339 292 314 335 327 338 310 335 333 325 6 31 28 337 13 59 102 338 313 353 6 13 6 358 354 358
221 224 229 242 276 299 303 318 333 342 344 349 358 358 355 352 353 357 16 20 20 352 349 332 12 17 5 356 350 326 312 317 320 329 4 353 332 354 357 320 31 356 335 341 54 17 359 16 5 4 360 8 8 4
222 226 225 234 260 287 287 308 329 339 339 339 349 351 347 346 344 348 32 12 14 12 291 300 358 17 10 4 2 8 355 340 346 0 19 2 330 351 314 336 40 360 359 5 335 347 350 351 0 8 6 6 9 11
220 225 223 225 245 268 273 291 322 337 331 327 342 343 345 342 336 360 352 345 353 354 331 333 320 357 7 14 11 24 20 10 12 14 351 348 353 2 14 7 358 355 354 357 322 339 30 9 6 15 11 12 11 11
220 223 220 221 236 253 262 274 306 331 324 317 333 331 335 335 344 19 20 326 341 346 343 318 332 345 352 8 9 16 22 27 21 28 8 343 345 10 48 13 337 341 346 6 16 36 23 26 24 25 26 24 30 35
218 220 217 218 229 241 251 256 286 315 317 310 324 321 318 323 339 0 342 346 349 1 0 26 294 332 357 354 360 359 10 26 19 3 356 4 345 32 41 344 344 348 348 10 12 44 79 46 42 38 41 43 38 35
216 215 215 221 225 233 241 244 271 300 311 310 325 315 93 341 341 323 324 335 356 11 36 47 338 286 343 356 353 350 9 42 0 21 19 9 343 38 336 341 355 3 8 8 57 75 53 49 47 45 46 48 44 37
213 214 219 225 221 227 237 238 257 285 296 311 326 180 158 308 321 315 298 336 329 347 336 238 258 279 331 343 354 2 18 49 22 328 335 53 306 350 11 18 16 28 43 47 51 46 55 61 56 51 46 44 42 35
214 218 227 220 216 223 228 229 245 277 285 294 195 150 289 321 310 310 300 12 330 317 247 282 267 283 331 18 297 13 256 347 41 298 82 344 331 339 5 11 14 27 41 51 59 66 70 63 52 41 36 38 45 40
218 219 225 214 213 217 222 221 232 249 237 245 286 302 288 37 337 26 297 298 227 234 237 257 317 291 317 336 336 7 58 1 310 334 69 338 257 339 355 7 10 11 22 31 31 30 27 21 11 7 17 14 17 20
216 219 216 208 208 211 215 213 216 226 220 248 162 99 175 171 24 158 216 274 300 208 215 316 323 310 276 20 73 33 23 260 302 37 251 228 281 328 352 358 354 358 350 357 6 8 6 1 3 359 357 351 349 11
214 215 209 205 205 206 205 205 206 203 192 189 162 324 176 246 239 203 205 172 144 199 312 322 307 322 333 48 119 65 275 22 8 348 248 259 316 330 333 344 343 335 337 325 325 329 338 343 349 351 355 356 353 347
212 210 206 206 203 205 199 198 196 193 202 198 188 232 218 235 252 258 230 246 188 319 302 299 295 310 340 61 341 40 9 263 222 230 237 315 324 317 323 326 323 322 318 311 307 310 318 325 322 326 324 327 346 349
209 206 210 203 202 199 195 180 182 181 213 221 228 237 228 237 246 224 229 247 249 220 207 233 87 47 294 210 174 220 227 222 239 211 225 301 311 313 324 326 321 323 323 323 301 298 301 311 316 319 313 305 322 323
204 208 207 196 198 194 186 176 171 196 209 217 232 223 227 255 254 228 196 176 164 172 199 140 113 219 105 316 241 203 214 224 226 211 251 291 290 306 312 307 302 301 309 304 301 295 293 294 303 304 285 289 296 308
210 209 204 194 191 183 175 172 180 213 230 226 228 227 224 229 232 231 224 227 205 195 181 217 191 179 201 211 226 228 232 243 233 251 286 276 288 305 303 303 308 302 296 299 292 286 285 291 288 276 285 296 301 306
207 206 202 194 190 170 165 180 188 238 224 228 231 230 234 242 244 244 237 220 222 230 213 219 230 210 215 222 236 250 266 282 291 292 290 295 293 301 299 301 303 305 295 293 289 281 279 285 280 282 289 298 305 313
207 208 202 200 194 176 161 192 197 231 223 218 221 229 233 240 253 250 247 240 229 206 201 222 214 225 220 233 252 260 266 291 291 286 288 294 298 294 295 301 304 293 283 287 281 280 284 283 283 289 297 304 310 315
197 201 201 196 186 192 197 176 187 210 200 205 213 213 233 238 243 242 241 235 216 219 230 235 246 250 252 256 262 262 271 282 283 289 292 293 295 288 299 302 304 301 290 280 281 290 285 282 291 305 311 315 316 319
193 185 174 184 191 194 209 191 193 179 190 200 180 197 219 208 215 230 233 213 225 231 235 246 251 256 259 260 263 268 276 282 282 276 276 282 278 287 297 291 290 283 286 300 310 299 297 305 305 307 311 313 315 328
180 176 179 176 178 190 211 182 177 182 160 190 175 196 230 206 208 190 230 228 229 242 246 252 261 265 268 273 274 274 271 265 259 262 271 275 281 278 286 305 286 297 279 280 283 284 287 296 298 300 303 305 318 323
178 176 165 179 194 189 172 185 178 171 180 161 168 210 214 206 181 198 246 247 246 249 250 257 257 256 259 261 257 257 256 253 252 258 265 265 273 268 273 290 286 279 280 269 278 280 281 292 302 307 306 308 318 329
162 174 172 181 186 165 176 170 155 179 168 173 181 212 192 177 175 206 230 254 257 258 264 264 255 252 252 258 256 262 239 231 240 258 264 262 268 257 257 270 270 271 279 277 272 269 281 290 300 292 297 308 308 312
182 179 182 183 169 171 178 159 174 158 138 161 192 182 166 158 167 234 241 256 255 259 271 269 254 248 249 248 249 243 225 227 241 254 265 263 261 262 262 261 263 264 272 271 272 271 272 282 267 271 286 287 300 335
172 170 195 191 178 161 145 155 162 176 171 176 166 141 127 186 225 238 242 247 252 278 285 263 254 246 251 252 245 238 222 226 242 261 260 257 260 261 261 255 255 257 259 265 266 263 273 259 259 270 258 271 260 331
167 172 178 175 165 180 143 140 153 176 183 173 151 166 180 199 218 228 241 249 240 243 241 242 250 254 244 241 240 227 221 221 231 248 258 261 263 266 259 248 248 252 243 234 237 251 261 250 267 258 221 201 262 335
169 177 153 163 143 185 196 176 191 179 175 175 176 185 216 222 236 241 245 244 236 232 240 246 245 248 243 234 223 210 210 216 222 236 253 261 262 263 265 254 259 250 233 229 239 247 245 255 256 210 171 182 207 335
175 170 152 167 169 203 205 200 197 199 199 205 207 218 232 234 239 242 241 249 247 242 250 247 225 234 254 240 220 211 210 216 226 239 254 267 273 269 261 249 242 250 231 228 223 225 233 229 217 191 194 193 201 188
164 174 138 166 211 206 206 205 204 204 206 210 211 219 229 234 238 242 243 250 251 247 237 227 232 244 238 233 225 222 222 222 228 240 252 260 266 275 261 237 229 236 231 230 224 225 228 218 209 202 206 198 195 193
171 174 145 137 210 180 190 189 195 198 200 204 210 221 226 229 229 237 242 242 242 242 242 232 234 240 240 243 249 240 237 234 238 241 254 267 264 260 247 233 228 230 230 231 223 223 224 217 210 210 211 205 200 203
161 165 150 123 131 167 176 173 185 183 195 206 216 222 227 223 230 239 245 246 247 250 252 251 248 252 254 254 252 247 246 246 244 246 250 258 256 249 240 233 232 224 224 226 218 221 222 219 213 214 213 211 210 211